Location: Unspecified
(0.0000°N, 0.0000°E)
Time: 04:22:09
(UTC+00:00)

STARLINK-1039 - Pass Details

Date: 22 January 2020
Orbit: 548 x 551 km, 53.0° (Epoch: 02 December)

Event Time Altitude Azimuth Distance (km) Brightness Sun altitude
Rises 04:18:28 0° 192° (SSW) 2,682 7.3 -26.4°
Reaches altitude 10° 04:21:05 10° 176° (S) 1,787 6.5 -25.8°
Maximum altitude 04:24:13 22° 125° (SE) 1,212 6.1 -25.1°
Drops below altitude 10° 04:27:21 10° 73° (ENE) 1,779 6.9 -24.4°
Sets 04:29:56 0° 58° (ENE) 2,666 7.6 -23.8°
